Regional Weather Roundup
Issued by NWS Midland/Odessa, TX

Skip options and go directly to product.
Home | Oldest Version | Next Version | Current Version | All | Text Only | Save Text | Print | Product List | Glossary On

Skip product version selection by date and time.   
878
ASUS44 KMAF 201902
RWRMAF
MIDLAND AREA WEATHER ROUNDUP
NATIONAL WEATHER SERVICE MIDLAND TX
100 PM CST THU NOV 20 2014

...IN SOUTHWEST TEXAS AND SOUTHEAST NEW MEXICO...

CITY           SKY/WX    TMP DP  RH WIND       PRES   REMARKS
ALPINE         SUNNY     69  24  18 W22       30.12F
ANDREWS        FAIR      65  23  20 W8        30.01F
ARTESIA        NOT AVBL
BIG SPRING     SUNNY     68  36  30 S13       30.02F
CARLSBAD       SUNNY     63  24  22 MISG      29.99F
DRYDEN           N/A     66  36  32 S8        30.02F
FORT STOCKTON  SUNNY     74  26  16 W13       30.01F
GUAD PASS      NOT AVBL
HOBBS          SUNNY     66  10  11 SW12      30.00F
MARFA          SUNNY     64  27  24 SW12G22   30.12F
MIDLAND AIRPK  SUNNY     66  33  29 SW9       30.02F
MIDLAND INTL   SUNNY     67  32  27 W10G20    30.00F
ODESSA         SUNNY     67  29  24 SW12      30.01F
PECOS          SUNNY     72  30  21 SW14      30.02F
PRESIDIO       FAIR      63  37  37 CALM      30.09F
SEMINOLE       SUNNY     66  19  16 CALM      30.00F
SNYDER         SUNNY     65  38  37 S15       30.00F
WINK           SUNNY     68  24  19 W13       29.99F
$$
...OTHER STATIONS IN TEXAS...

CITY           SKY/WX    TMP DP  RH WIND       PRES   REMARKS
ABILENE        SUNNY     67  46  47 SW14      30.00F
AMARILLO       MOSUNNY   52  28  39 NE8       29.97F
AUSTIN         CLOUDY    71  58  63 S16       30.06F
BROWNSVILLE    CLOUDY    73  66  78 SE17G23   30.06F
CORPUS CHRISTI LGT RAIN  69  66  90 S10       30.07F
DALLAS FTW     PTSUNNY   68  47  46 SW8G18    30.04F
DEL RIO        SUNNY     61  52  72 S6        30.05F
EL PASO        SUNNY     63  22  20 S3        30.08F
HOUSTON INT    PTSUNNY   72  55  55 S12       30.11F
LUBBOCK        MOSUNNY   62  20  19 SW8       29.95F
SAN ANGELO     SUNNY     71  44  37 S20G28    30.00F
SAN ANTONIO    LGT RAIN  62  59  90 W6        30.08F FOG
WACO           PTSUNNY   70  54  56 S17G25    30.06F
WICHITA FALLS  NOT AVBL
$$
...OTHER LOCATIONS IN NEW MEXICO...

CITY           SKY/WX    TMP DP  RH WIND       PRES   REMARKS
ALAMAGORDO     SUNNY     57  16  19 S3        30.08F
ALBUQUERQUE    MOSUNNY   50  10  20 SW5       30.10F
CANNON AFB     SUNNY     61  13  15 N7        29.96F
CLOVIS         SUNNY     59  19  21 NW8         N/A
HOLLOMAN AFB   SUNNY     56  17  21 S2        30.07F
ROSWELL        SUNNY     62  24  23 E5        29.99F
RUIDOSO        SUNNY     54  10  17 NW12G22   30.11F
SANTA FE       SUNNY     49   8  19 N12       30.08F
TRUTH OR CONSE SUNNY     55  13  18 VRB3      30.08F
TUCUMCARI      SUNNY     57  18  21 VRB3      29.97F
$$

USA.gov is the U.S. government's official web portal to all federal, state and local government web resources and services.